GFSFLT2_925_temp_024.txt.gz
Temp
21 21 21 20 20 19 19 19 19 18 18 18 18 18 18 18 17 17 17 17 17 17 17 17 17 17 17 17 17 18 18 19
23 22 22 21 21 20 19 19 19 19 19 19 18 18 18 17 17 17 17 17 17 17 17 17 17 17 17 18 18 19 18 19
24 23 22 21 21 21 20 20 19 19 19 19 19 19 18 17 18 18 18 17 17 17 17 17 17 17 17 17 18 18 18 19
23 23 22 22 23 21 21 21 20 20 20 19 19 19 19 19 18 18 18 18 18 17 17 17 17 17 17 17 18 18 18 18
23 23 22 22 22 23 22 22 21 20 20 19 19 19 19 19 19 18 19 18 18 18 18 18 17 17 16 17 17 17 17 18
23 22 22 22 22 22 22 22 21 21 20 20 19 19 19 19 19 18 19 19 19 18 18 18 18 17 17 16 16 16 16 17
24 23 22 21 21 22 21 21 21 21 20 20 19 19 18 18 18 18 18 19 19 19 18 18 18 18 18 17 16 16 16 16
25 23 22 22 22 21 21 21 21 21 20 19 19 18 18 18 18 18 18 18 18 18 18 17 17 17 17 17 17 16 16 16
25 21 23 22 22 21 21 21 21 21 20 20 19 18 18 18 18 18 18 18 18 18 18 18 18 18 18 17 17 17 16 16
23 25 23 22 22 21 21 21 20 20 20 20 19 18 18 17 17 17 17 17 17 17 17 17 17 17 17 17 18 17 17 16
25 25 23 22 22 21 21 20 20 20 20 20 19 18 18 17 16 16 16 16 16 16 17 17 17 17 17 17 17 17 17 17
24 23 22 21 21 21 21 20 20 20 20 19 18 17 17 16 16 16 16 16 16 16 16 16 15 15 15 16 16 16 16 17
22 20 20 20 21 20 20 20 19 20 19 18 17 17 16 15 15 15 15 15 15 15 14 14 14 15 15 15 15 16 16 16
21 20 19 19 19 19 19 19 19 19 19 18 17 17 16 15 15 14 13 13 13 13 13 14 14 14 14 14 13 14 15 16
20 19 18 17 18 18 18 18 18 18 18 17 17 15 14 14 14 14 13 13 12 12 12 12 12 12 13 13 11 11 12 13
19 19 18 17 16 16 16 16 16 15 15 15 15 14 14 13 13 13 12 12 11 11 11 9 8 7 8 9 7 7 8 9
18 19 18 17 16 16 15 15 14 14 14 14 13 13 12 12 12 11 11 10 10 9 8 7 6 6 5 5 5 6 6 5
18 18 18 18 17 16 15 14 14 14 13 13 12 11 11 10 10 10 10 9 8 7 7 6 5 5 4 4 3 2 2 1
18 18 17 17 16 16 15 14 13 13 12 11 10 9 9 9 9 9 8 8 7 6 6 5 5 4 3 3 2 2 1 1
18 17 17 16 16 14 14 13 12 11 10 9 9 9 8 9 8 7 6 6 5 5 4 4 4 4 4 4 4 4 3 3

GFSFLT2_925_temp_027.txt.gz
Temp
21 21 21 21 20 19 19 19 19 19 19 19 18 18 18 18 18 18 18 18 18 18 18 18 18 18 18 18 18 19 18 18
22 21 21 21 21 20 20 20 19 19 19 19 18 18 18 19 18 18 18 18 18 17 17 17 17 17 17 17 18 18 18 18
22 21 21 21 21 21 20 20 20 19 19 19 19 18 18 18 18 18 18 18 17 17 17 17 17 17 17 17 17 17 17 17
22 21 22 21 21 21 20 20 20 19 19 19 19 19 19 18 18 18 18 18 18 18 18 18 17 17 17 17 17 17 17 17
23 22 22 21 21 21 21 20 20 19 19 19 19 19 19 19 18 18 18 18 18 18 18 18 18 17 17 17 17 17 17 17
23 23 22 22 22 21 20 20 20 19 19 19 19 19 19 19 18 18 18 18 18 18 18 18 18 18 17 17 17 16 16 16
23 23 23 22 22 21 21 21 21 20 20 20 19 19 18 18 18 18 18 18 18 18 18 18 18 17 17 17 17 17 17 17
23 22 22 21 22 21 21 21 21 20 20 20 19 18 18 18 18 18 18 18 18 18 17 17 17 17 17 17 17 17 17 17
22 22 22 21 21 21 21 20 21 20 20 20 19 19 18 18 17 17 17 17 17 17 17 17 17 17 17 17 17 17 17 17
22 22 19 16 21 21 21 20 20 20 20 20 19 18 18 17 17 17 17 17 16 16 16 16 16 16 16 16 16 17 17 17
22 19 18 18 20 20 20 20 20 20 20 19 18 18 17 17 16 16 16 15 15 15 15 15 14 15 15 15 15 15 16 16
21 20 19 20 20 20 20 20 19 19 19 18 18 17 17 17 16 16 15 15 14 14 13 14 13 13 14 14 14 15 15 15
20 20 20 20 19 19 19 19 19 19 18 18 17 16 15 15 14 14 14 14 13 13 13 12 12 12 12 12 13 13 14 14
19 19 19 19 18 18 18 18 18 18 16 15 15 14 14 14 13 13 13 13 12 12 11 11 10 10 9 10 10 12 12 12
18 18 18 18 18 18 17 17 16 16 15 14 14 13 13 12 12 11 11 11 11 11 10 10 7 7 7 7 6 7 7 10
18 18 18 18 17 16 16 15 14 14 14 13 13 12 11 11 11 11 10 10 10 9 8 9 8 6 6 6 4 5 5 6
18 18 17 17 16 16 15 15 14 14 13 12 11 11 11 10 10 9 9 9 9 8 8 7 7 7 6 4 4 3 4 3
18 18 17 16 16 15 15 14 13 12 11 11 10 10 9 9 8 8 8 8 8 7 6 6 5 5 5 4 3 2 2 1
18 17 17 16 15 14 13 12 12 11 10 9 9 9 8 8 7 7 7 6 6 6 5 4 4 4 4 4 3 3 2 1
17 17 16 14 14 13 12 11 11 10 9 9 9 8 8 7 7 6 6 5 5 4 5 3 4 4 4 3 3 2 2 2

GFSFLT2_925_temp_030.txt.gz
Temp
21 20 20 20 20 20 20 19 19 19 19 19 19 19 19 18 18 18 18 18 18 18 18 17 17 17 17 17 17 17 16 17
21 21 21 21 21 20 20 20 19 19 19 19 19 19 18 18 18 18 18 18 17 18 17 17 17 17 17 17 17 17 17 17
21 21 21 21 20 20 19 19 19 19 19 18 18 18 18 18 18 18 18 17 17 18 18 17 17 17 17 17 17 17 17 17
21 21 21 21 20 20 20 20 19 19 19 19 18 18 18 18 18 18 18 18 18 18 18 18 17 17 17 17 17 17 17 17
21 21 21 21 20 20 20 20 19 19 19 19 18 18 18 18 18 18 18 18 18 18 18 18 18 17 17 17 17 16 16 17
21 22 21 21 21 20 20 20 19 19 19 19 19 18 18 18 18 18 18 18 18 18 18 17 17 17 17 17 17 17 17 17
22 22 21 21 21 21 20 20 19 19 19 19 19 18 18 18 18 18 18 17 17 17 17 17 17 17 17 17 17 17 17 17
22 22 21 21 21 21 21 20 20 20 19 19 19 19 18 18 17 17 17 17 17 17 17 16 16 16 16 16 16 17 17 16
22 21 21 21 21 21 21 20 20 20 20 19 19 19 18 18 18 17 17 16 16 16 16 15 15 15 15 15 15 15 16 16
20 21 21 20 21 20 20 20 20 20 19 19 18 18 17 17 17 17 16 16 16 15 15 14 14 14 14 14 14 14 15 15
19 20 20 20 20 19 19 19 20 19 19 18 17 17 17 16 16 15 15 14 14 14 14 13 13 13 12 12 13 13 14 14
18 19 18 18 17 18 18 18 18 18 17 16 16 15 15 14 14 14 13 13 13 13 13 12 12 11 12 12 12 12 13 13
17 17 17 18 18 18 18 16 16 15 15 15 14 14 13 13 12 12 12 12 12 11 11 11 11 10 10 9 10 11 11 11
17 17 18 17 17 16 16 16 15 15 14 13 13 13 12 12 12 11 11 10 10 10 10 10 9 8 7 7 7 9 9 9
18 18 18 17 17 17 17 17 16 15 13 13 12 12 12 11 10 10 10 9 9 9 9 9 8 7 7 7 6 5 5 8
18 17 17 17 16 16 16 15 14 13 13 13 12 12 12 11 11 10 9 9 9 8 7 7 7 7 6 6 5 4 3 4
17 17 17 16 16 15 15 14 13 12 11 11 11 10 9 9 9 8 8 7 7 7 6 6 5 5 4 4 4 4 3 2
17 16 16 16 15 15 14 13 12 12 10 10 9 9 8 8 8 7 7 7 6 5 5 4 4 4 4 4 4 3 2 2
17 16 15 14 14 13 13 12 11 11 10 9 9 8 7 7 7 6 6 6 5 5 5 4 4 3 3 4 3 3 2 2
16 15 14 13 13 12 11 11 10 10 9 8 7 7 6 6 6 6 5 5 4 4 4 3 3 3 3 3 2 3 3 2

GFSFLT2_925_temp_033.txt.gz
Temp
20 20 20 20 19 19 19 19 19 19 19 19 19 18 18 18 18 18 18 17 18 17 17 17 17 17 17 17 17 17 17 17
21 20 20 19 19 19 20 20 19 19 19 18 18 18 18 18 18 18 18 18 18 18 18 17 17 17 17 17 17 17 17 17
20 20 20 20 20 20 19 19 19 18 18 18 18 18 18 18 18 17 17 18 18 17 17 17 17 17 17 17 17 17 17 17
20 20 20 20 20 19 19 19 19 18 18 18 18 18 18 18 17 17 17 17 17 17 17 17 17 17 17 17 17 17 17 17
20 20 20 20 20 20 19 19 19 19 18 18 18 18 18 17 17 17 17 17 17 17 17 17 17 16 17 16 16 17 17 17
20 20 20 20 20 20 20 19 19 19 19 18 18 18 18 18 17 17 17 17 17 17 16 16 16 16 16 16 16 16 16 16
21 20 20 20 20 20 20 20 19 19 19 19 18 18 18 18 17 17 17 17 17 16 16 16 16 16 16 16 15 15 15 16
21 20 20 21 20 20 20 20 20 19 19 18 18 18 18 18 18 17 17 17 16 16 15 15 15 15 15 15 14 14 14 14
21 20 19 20 20 19 19 20 20 19 19 18 18 18 18 17 17 16 16 15 15 15 15 14 14 14 13 14 14 14 14 14
20 19 19 18 19 19 18 18 18 18 18 17 17 16 16 16 15 15 14 14 14 14 14 13 13 13 13 13 12 12 12 13
17 17 18 17 17 17 17 18 18 17 17 16 15 15 15 14 14 13 13 13 13 12 12 12 11 12 12 11 11 11 11 11
16 16 17 16 17 17 17 16 15 15 15 15 15 14 14 14 13 13 13 12 12 11 11 11 10 10 10 10 10 10 9 10
16 16 17 17 17 17 16 15 14 15 15 14 14 14 14 14 13 12 12 11 11 10 10 10 9 9 8 8 9 9 9 9
17 18 17 17 17 16 16 15 15 15 14 14 14 13 12 12 11 11 11 10 10 9 9 8 8 8 7 6 5 7 7 7
18 18 18 17 17 17 16 15 14 14 13 12 11 11 10 10 10 10 10 9 8 8 7 7 6 7 6 5 4 3 4 7
17 17 17 17 17 17 17 16 15 12 11 11 10 10 10 10 9 9 8 8 7 7 6 6 6 5 5 5 4 4 2 2
16 16 16 16 15 15 15 14 13 12 11 11 10 10 9 8 8 7 7 7 6 6 5 5 4 4 4 3 3 3 2 2
16 16 16 15 15 14 14 13 12 11 11 10 10 9 9 8 8 7 7 6 6 5 5 4 4 3 3 3 2 2 2 2
15 15 14 14 13 13 12 12 11 11 11 11 10 9 9 8 7 6 6 5 5 4 4 4 3 3 3 3 2 2 2 1
14 14 13 13 12 12 11 11 11 11 10 10 9 8 8 7 7 6 5 5 4 4 4 4 3 3 3 2 2 2 2 2

GFSFLT2_925_temp_036.txt.gz
Temp
19 19 19 19 19 19 19 19 19 18 19 19 18 18 18 18 18 17 17 17 17 17 17 17 17 17 17 17 17 17 17 17
20 20 19 19 19 19 19 19 18 19 18 18 18 18 17 17 17 17 17 17 17 17 17 17 17 17 17 17 16 16 17 16
20 19 19 19 19 19 18 19 19 18 18 18 18 18 17 17 17 17 17 17 17 17 17 17 17 17 17 17 17 17 16 16
19 19 20 20 19 19 19 19 19 18 18 18 18 17 17 17 17 17 17 17 17 17 17 17 17 16 16 16 16 16 16 16
19 19 20 20 20 19 19 19 18 18 18 18 18 18 18 17 17 17 17 17 17 17 17 16 16 16 16 16 15 16 16 16
20 19 20 20 19 19 19 19 19 18 18 18 18 18 18 18 17 17 17 17 16 16 16 16 15 15 15 15 15 15 15 15
20 19 19 19 19 19 18 19 19 18 18 18 18 18 18 18 17 16 16 15 15 15 15 15 15 15 15 14 14 14 14 14
20 19 18 18 18 18 18 18 18 18 18 17 17 17 16 16 16 15 14 14 14 14 14 14 14 14 14 14 13 13 13 13
19 18 17 17 16 17 17 17 18 17 17 16 16 16 15 15 15 15 14 14 14 14 13 13 13 13 13 13 12 12 12 12
17 17 16 16 16 16 16 16 17 16 16 15 15 15 15 15 14 14 14 14 13 13 13 12 12 11 11 11 11 11 11 10
16 16 15 15 14 15 15 16 16 15 15 15 15 15 15 15 14 14 13 13 12 12 11 11 10 10 10 10 10 10 9 9
15 15 14 14 12 14 15 15 15 15 15 15 15 15 14 14 13 12 12 12 11 11 10 10 9 8 8 8 9 9 9 8
16 16 13 13 14 15 15 15 15 15 15 15 14 13 13 12 12 11 11 11 10 9 8 8 8 7 7 7 8 8 8 7
15 16 15 16 16 16 17 16 15 15 14 13 12 12 11 11 11 11 10 10 9 8 7 7 7 6 6 5 4 6 6 7
17 17 18 18 18 18 17 16 14 13 12 12 11 11 11 11 10 10 9 9 8 7 7 6 6 6 5 5 3 2 2 5
18 18 18 17 17 16 16 15 14 13 11 11 10 11 10 10 10 9 8 8 7 7 6 6 5 5 5 5 4 3 1 1
17 17 16 16 16 15 15 15 13 11 11 11 11 10 10 10 9 8 7 6 6 5 5 5 4 4 3 3 3 3 2 1
15 15 15 15 15 14 14 13 12 11 11 11 11 11 10 9 8 8 7 6 5 5 4 4 3 3 3 2 2 1 2 2
14 14 14 14 13 13 12 12 11 11 11 11 11 10 9 9 8 7 7 6 5 4 4 4 3 3 3 2 2 2 1 1
14 14 13 13 12 12 12 12 12 11 11 10 10 9 9 8 8 7 6 5 5 4 4 4 3 3 3 2 2 2 1 1